Volver al catálogo

TOMORROW-S5

ActivoMeteoSSO
NORAD 63234·PAYLOAD·🇺🇸 United States

Lanzado Mar 15, 2025 desde Vandenberg Space Force Base

Loading…

Próximos Pases (próximas 24 horas)

TLE

ActualizadoSource: Space-Track

Época: Sep 14, 2026, 12:08 UTC

1 63234U 25052AA  26257.50610777  .00003787  00000-0  16340-3 0  9999
2 63234  97.3848 148.7795 0006278 183.0069 177.1131 15.23117789 83433

Sigue TOMORROW-S5 en tiempo real con AllMySat

Download on the App Store